Tracking 19717 objects as of 25-Jun-2019
HD Live streaming from Space Station
objects crossing your sky now

ABS-1A (KOREASAT 2)

Track ABS-1A (KOREASAT 2) now!
ABS-1A (KOREASAT 2) is classified as:


NORAD ID: 23768
Int'l Code: 1996-003A
Perigee: 35,910.3 km
Apogee: 35,947.2 km
Inclination: 9.2 °
Period: 1,443.0 minutes
Semi major axis: 42299 km
RCS: 25.1188 m2 (large)
Launch date: January 14, 1996
Source: South Korea (SKOR)
Launch site: AIR FORCE EASTERN TEST RANGE (AFETR)

Korean peninsula; 15 Ku-band transponders.
aabbcc
Your satellite tracking list
Your tracking list is empty




NASA's NSSDC Master Catalog

Two Line Element Set (TLE):
1 23768U 96003A   19174.27363211  .00000120  00000-0  00000+0 0  9993
2 23768   9.2208  41.9694 0004360  20.4905 349.1102  0.99792268 85752
Source of the keplerian elements: AFSPC